Regional Weather Roundup
Issued by NWS Charleston, WV

Home | Current Version | Previous Version | Graphics & Text | Print | Product List | Glossary On
Versions: 1 2 3 4 5 6 7 8 9 10 11 12 13 14 15 16 17 18 19 20 21 22 23 24 25 26 27
000
ASUS41 KRLX 271110
RWRRLX
West Virginia Regional Weather Roundup
National Weather Service Charleston WV
700 AM EDT TUE JUN 27 2017

Note: "fair" indicates few or no clouds below 12,000 feet with no
significant weather and/or obstructions to visibility.

WVZ003-271200-
Northern Panhandle of West Virginia

CITY           SKY/WX    TMP DP  RH WIND       PRES   REMARKS
WHEELING       SUNNY     54  49  83 W6        30.06R
$$

WVZ009-271200-
Northwest West Virginia

CITY           SKY/WX    TMP DP  RH WIND       PRES   REMARKS
PARKERSBURG    CLEAR     54  53  97 CALM      30.11R
$$

WVZ006-271200-
Western West Virginia

CITY           SKY/WX    TMP DP  RH WIND       PRES   REMARKS
HUNTINGTON     CLOUDY    57  54  89 SW6       30.12R
$$

WVZ015-271200-
West Central West Virginia

CITY           SKY/WX    TMP DP  RH WIND       PRES   REMARKS
CHARLESTON     CLOUDY    59  55  87 CALM      30.10R
$$

WVZ022-031-271200-
North Central West Virginia

CITY           SKY/WX    TMP DP  RH WIND       PRES   REMARKS
CLARKSBURG     CLOUDY    55  52  89 CALM      30.08R
MORGANTOWN     MOSUNNY   56  52  86 SW5       30.08R
$$

WVZ025-035-042-045-271200-
Southern West Virginia

CITY           SKY/WX    TMP DP  RH WIND       PRES   REMARKS
BECKLEY        CLEAR     52  48  86 CALM      30.15R
LOGAN          MOCLDY    55  54  94 CALM      30.13R
BLUEFIELD      PTCLDY    53  46  77 W6        30.16R
LEWISBURG      CLEAR     49  47  92 CALM      30.13S
$$

WVZ047-271200-
Northern Mountains of West Virginia

CITY           SKY/WX    TMP DP  RH WIND       PRES   REMARKS
ELKINS         CLOUDY    58  48  69 SW5       30.11R
$$

WVZ052-271200-
Eastern Panhandle of West Virginia

CITY           SKY/WX    TMP DP  RH WIND       PRES   REMARKS
MARTINSBURG    PTSUNNY   65  48  54 NW5       30.03S
PETERSBURG     CLOUDY    58  55  92 CALM      30.06F
$$




USA.gov is the U.S. government's official web portal to all federal, state and local government web resources and services.